Showing default

COSMOS 82, 1572

Orbit data source: Space-Track

COSMOS 82, 1572 is a payload satellite owned by OKB-10 (CIS) in LEO that was launched on Fri, 03 Sep 1965 UTC via a KOSMOS 65S3 launch vehicle from the Tyuratam Missile And Space Complex (TTMTR). Payloads include a variety of satellites, spacecraft, and rockets equipped with specific instruments for various scientific and technological missions. These include communications satellites like Starlink; space stations such as the ISS; scientific satellites like the Hubble; Earth observation satellites from companies like Planet Labs, Umbra, and HawkEye 360; GPS; miniature CubeSats for education and research; and military/defense satellites.

Loading next visibility...
COSMOS 82 details
Identifier
1572, 1965-070C
Orbit
LEO
Last TLE update17 hours ago
Origin
Flag of CISOKB-10 (CIS)
ManufacturerOKB-10
MissionDefense Communications
Bus & MotorSTRELA-1 11F610, Unknown motor
Mass50 kg wet, 50 kg dry
Launch date (UTC)
1965-09-03 (59 years ago)
Launch vehicle
KOSMOS 65S3
Launch site
Tyuratam Missile And Space Complex (TTMTR)
Object type
Payload
Rocket body
Debris
Shape & HBRPoly, 0.8 m
Radar Cross Section0.731 m², Medium (>0.1 m² and < 1m²)

Expand to show TLE details & history

TLE from 17 hours ago
0 COSMOS 82
1 01572U 65070C   24355.80245928 -.00000077  00000-0  11389-3 0  9990
2 01572  56.0597 270.6805 0072524 253.4691 140.7636 12.45113309696521
Epoch: 2024-12-20T19:15Z
Definitive object data (Epoch: 2024-12-20T19:15:32.481Z)
Latitude28.29437°
Longitude-86.93539°
Altitude1,531.013 km
Speed7.083 km/s
True Right ascension19h 27m 15s
True Declination28° 09' 54"
Sunlit
Object was in daylight at TLE epoch
Visualization TLE readout
Latitude-7.5204°
Longitude-115.0458°
Altitude1,493.53 km
Speed7.115 km/s
Apparent Right ascension19h 40m 05s
Apparent Declination-28° 25' 48"
Sunlit
Object is in daylight
Visualization observer readout
Local Sidereal Time11:23:45
Azimuth93.842° ESE
Elevation-43.117°
Doppler factor1
Orbital elements
Apogee altitude1,541.85 km
Perigee altitude1,427.799 km
Semi-major axis7,862.962 km
Eccentricity0.0072524
Inclination56.0597°
RAAN270.6805°
Arg. of periapsis253.4691°
True anomaly141.28559°
Mean anomaly140.7636°
Eccentric anomaly141.02496°
Mean motion3.11289 °/min
BSTAR0.00011389
Orbital period115.65 mins
Loading maneuver chart data...
Loading historical data...
Loading historical data...
Loading historical data...
Loading historical data...
Loading historical data...
Loading historical data...
Loading historical data...

COSMOS 82 Visibility forecast

Observer location: undefined°, undefined

Span
Click to sort rows by Start time (UTC) header in descending order
Start Az.
Max El. time (UTC)
Max El. Az.
Max El.
End time (UTC)
End Az.
5 mins2024-12-21 18:19:58.226Z128.182° SE2024-12-21 18:22:58.226Z108.283° ESE12.027°2024-12-21 18:24:58.226Z95.006° ESE
16 mins2024-12-21 20:14:58.226Z200.699° SSW2024-12-21 20:21:58.226Z127.217° SE41.128°2024-12-21 20:30:58.226Z50.59° ENE
16 mins2024-12-21 22:15:58.226Z259.422° W2024-12-21 22:22:58.226Z323.781° NNW37.056°2024-12-21 22:31:58.226Z41.936° NE
14 mins2024-12-22 00:19:58.226Z303.284° NW2024-12-22 00:26:58.226Z0.518° NNE26.025°2024-12-22 00:33:58.226Z52.057° ENE
15 mins2024-12-22 02:22:58.226Z321.446° NNW2024-12-22 02:29:58.226Z21.257° NNE32.024°2024-12-22 02:37:58.226Z88.224° E
17 mins2024-12-22 04:23:58.226Z313.729° NW2024-12-22 04:31:58.226Z244.225° WSW44.935°2024-12-22 04:40:58.226Z139.456° SSE
11 mins2024-12-22 06:26:58.226Z282.691° WNW2024-12-22 06:31:58.226Z243.959° WSW20.777°2024-12-22 06:37:58.226Z200.33° SSW
|